Volver al catálogo

METEOSAT 3 AKM

ActivoGEO
NORAD 43333·ROCKET BODY·🇪🇺 EU

Lanzado Jun 15, 1988 desde Guiana Space Centre

Loading…

TLE

ActualizadoSource: Space-Track

Época: Sep 14, 2026, 01:28 UTC

1 43333U 88051G   26257.06137660 -.00000286  00000-0  00000-0 0  9996
2 43333  11.8482 329.5243 0057301 178.8734 181.1492  0.99537878 46589

Sigue METEOSAT 3 AKM en tiempo real con AllMySat

Download on the App Store